Observations for Trim Patrick St
| Time | AQI | Temp °C | Hum % | Pres Pa | CO μg/m³ | H₂S μg/m³ | NO μg/m³ | NO₂ μg/m³ | O₃ μg/m³ | SO₂ μg/m³ | PM1 μg/m³ | PM2.5 μg/m³ | PM10 μg/m³ |
|---|---|---|---|---|---|---|---|---|---|---|---|---|---|
| Sunday 2 August 2026 | |||||||||||||
| 14:34 | 2 | 26.6 | 39 | 69,098 | 0 | 2.67 | 1.3 | 19.1 | 88.34 | 9.33 | 3.71 | 9.45 | 10.4 |
| 14:33 | 2 | 26.6 | 39 | 69,074 | 0 | 3.07 | 1.23 | 18.73 | 74.45 | 9.87 | 3.71 | 9.47 | 10.41 |
| 14:32 | 2 | 26.5 | 39 | 69,071 | 0 | 7.77 | 1.25 | 23.09 | 118.94 | 10.33 | 2.86 | 8.66 | 9.53 |
| 14:31 | 2 | 26.5 | 39 | 69,067 | 0 | 3.85 | 1.25 | 18.84 | 80.66 | 9.92 | 2.86 | 8.65 | 9.52 |
| 14:30 | 2 | 26.5 | 39 | 69,059 | 0 | 2.78 | 1.23 | 17.69 | 76.56 | 9.52 | 3.71 | 9.45 | 10.39 |
| 14:29 | 2 | 26.4 | 40 | 69,055 | 0 | 5.64 | 1.26 | 16.95 | 74.18 | 10.03 | 2 | 7.85 | 8.63 |
| 14:28 | 2 | 26.4 | 39 | 69,043 | 0 | 6.63 | 1.25 | 24.03 | 90.2 | 9.9 | 3.71 | 9.45 | 10.4 |
| 14:27 | 2 | 26.4 | 39 | 69,031 | 0 | 2.71 | 1.2 | 18.53 | 86.71 | 10.14 | 2.86 | 8.71 | 9.58 |
| 14:26 | 2 | 26.4 | 39 | 69,043 | 0 | 1.86 | 1.22 | 18.56 | 73.78 | 8.75 | 2.86 | 8.66 | 9.53 |
| 14:25 | 2 | 26.5 | 39 | 69,029 | 0 | 4.33 | 1.26 | 17.79 | 74.96 | 9.18 | 3.71 | 10.24 | 11.26 |
| 14:24 | 2 | 26.4 | 40 | 69,008 | 0 | 13.98 | 1.27 | 35.04 | 93.5 | 10.68 | 3.71 | 9.43 | 10.38 |
| 14:23 | 2 | 26.4 | 40 | 69,012 | 0 | 10.22 | 1.25 | 27.74 | 80.54 | 10.48 | 2.86 | 8.64 | 9.5 |
| 14:22 | 2 | 26.4 | 39 | 69,016 | 0 | 9.26 | 1.22 | 31.66 | 85.19 | 9.25 | 2 | 7.87 | 8.65 |
| 14:20 | 2 | 26.4 | 40 | 69,037 | 0 | 9.61 | 1.28 | 19.86 | 77.87 | 10.41 | 4.57 | 10.2 | 11.22 |
| 14:19 | 2 | 26.4 | 39 | 69,016 | 0 | 14.64 | 1.16 | 38.88 | 130.22 | 11.25 | 2.86 | 8.67 | 9.54 |
| 14:18 | 2 | 26.4 | 39 | 69,021 | 0 | 6.15 | 1.21 | 18.41 | 79.14 | 10.26 | 3.71 | 9.45 | 10.39 |
| 14:17 | 2 | 26.4 | 39 | 68,999 | 0 | 5.29 | 1.2 | 18.66 | 88.95 | 9.48 | 2.86 | 9.47 | 10.41 |
| 14:16 | 2 | 26.4 | 40 | 69,004 | 0 | 4.82 | 1.31 | 19 | 74.37 | 9.53 | 2.86 | 9.43 | 10.38 |
| 14:15 | 2 | 26.4 | 40 | 69,008 | 0 | 9.9 | 1.25 | 19.86 | 82.52 | 10.72 | 3.71 | 9.38 | 10.32 |
| 14:14 | 2 | 26.4 | 40 | 69,012 | 0 | 16.38 | 1.22 | 29.23 | 113.88 | 11.64 | 3.71 | 9.41 | 10.35 |